Weather History for KCNY - September, 2013

Change the Weather History Date:

Monday, September 9, 2013

  Actual Average Record
Temperature  
Mean Temperature 64 °F 70 °F  
Max Temperature 67 °F 85 °F 101 °F (1979)
Min Temperature 61 °F 55 °F 37 °F (1929)
Degree Days  
Heating Degree Days 1 1  
Month to date heating degree days 1 3  
Since 1 July heating degree days 1 4  
Cooling Degree Days 0 5  
Month to date cooling degree days 118 59  
Year to date cooling degree days 1585 1225  
Growing Degree Days 13 (Base 50)    
Moisture  
Dew Point 61 °F    
Average Humidity 91    
Maximum Humidity 100    
Minimum Humidity 81    
Precipitation  
Precipitation 0.43 in 0.04 in 1.30 in (1961)
Month to date precipitation 0.56 0.27  
Year to date precipitation 4.46 5.65  
Sea Level Pressure  
Sea Level Pressure 29.93 in    
Wind  
Wind Speed 6 mph (East)    
Max Wind Speed 14 mph    
Max Gust Speed 17 mph    
Visibility 9 miles    
Events Rain    
T = Trace of Precipitation, MM = Missing Value Source: NWS Daily Summary

Daily Weather History Graph

Daily Weather History Graph

Search for Another Location

Airport or City:

Trip Planner

Search our weather history database for the weather conditions in past years. The results will help you decide how hot, cold, wet, or windy it might be!

Date:

Astronomy

Sep. 09, 2013 Rise Set
Actual Time 6:55 AM MDT 7:36 PM MDT
Civil Twilight 6:28 AM MDT 8:03 PM MDT
Nautical Twilight 5:56 AM MDT 8:34 PM MDT
Astronomical Twilight 5:24 AM MDT 9:07 PM MDT
Moon 11:17 AM MDT (9/9) 9:58 PM MDT (9/9)
Length of Visible Light 13h 34m
Length of Day
12h 40m
Waxing Crescent, 19% of the Moon is Illuminated
Sep 9
Waxing Crescent
Sep 12
First Quarter
Sep 19
Full
Sep 26
Last Quarter
Oct 4
New

Hourly Weather History & Observations

Time (MDT) Temp. Dew Point Humidity Pressure Visibility Wind Dir Wind Speed Gust Speed Precip Events Conditions
12:53 AM 64.0 °F 61.0 °F 90% 29.87 in 10.0 mi Calm Calm - 0.00 in   Overcast
1:53 AM 64.0 °F 62.1 °F 93% 29.87 in 10.0 mi North 4.6 mph - 0.00 in Rain Light Rain
2:53 AM 63.0 °F 61.0 °F 93% 29.86 in 10.0 mi NNW 8.1 mph - 0.01 in   Overcast
3:53 AM 63.0 °F 62.1 °F 97% 29.85 in 10.0 mi WNW 3.5 mph - N/A   Overcast
4:53 AM 63.0 °F 62.1 °F 97% 29.87 in 5.0 mi Calm Calm - 0.02 in Rain Light Rain
5:30 AM 62.6 °F 62.6 °F 100% 30.00 in 10.0 mi NW 5.8 mph - 0.03 in Rain Light Rain
5:53 AM 62.1 °F 61.0 °F 96% 29.88 in 10.0 mi NW 5.8 mph - 0.05 in Rain Light Rain
6:23 AM 60.8 °F 60.8 °F 100% 30.00 in 7.0 mi NW 12.7 mph - 0.02 in Rain Light Rain
6:45 AM 60.8 °F 60.8 °F 100% 30.01 in 3.0 mi NNW 9.2 mph - 0.08 in Rain Rain
6:53 AM 61.0 °F 60.1 °F 97% 29.89 in 4.0 mi NNW 6.9 mph - 0.09 in Rain Rain
7:06 AM 60.8 °F 60.8 °F 100% 30.02 in 3.0 mi NW 3.5 mph - 0.04 in Rain Rain
7:49 AM 60.8 °F 60.8 °F 100% 30.01 in 2.5 mi Calm Calm - 0.12 in Rain Rain
7:53 AM 61.0 °F 60.1 °F 97% 29.90 in 4.0 mi Calm Calm - 0.12 in Rain Light Rain
8:53 AM 62.1 °F 61.0 °F 96% 29.90 in 10.0 mi SE 4.6 mph - 0.03 in Rain Light Rain
9:29 AM 62.6 °F 60.8 °F 94% 30.03 in 10.0 mi SE 5.8 mph - 0.00 in Rain Light Rain
9:53 AM 63.0 °F 60.1 °F 90% 29.91 in 10.0 mi Calm Calm - 0.00 in   Overcast
10:53 AM 62.1 °F 61.0 °F 96% 29.91 in 8.0 mi SE 3.5 mph - 0.03 in Rain Light Rain
11:53 AM 63.0 °F 61.0 °F 93% 29.91 in 10.0 mi SE 6.9 mph - 0.02 in Rain Light Rain
12:38 PM 64.4 °F 62.6 °F 94% 30.02 in 10.0 mi ESE 6.9 mph - 0.00 in   Partly Cloudy
12:53 PM 64.9 °F 61.0 °F 87% 29.90 in 10.0 mi ESE 5.8 mph - 0.00 in   Scattered Clouds
1:05 PM 64.4 °F 60.8 °F 88% 30.02 in 10.0 mi ESE 5.8 mph - N/A   Mostly Cloudy
1:53 PM 66.0 °F 60.1 °F 81% 29.89 in 10.0 mi ENE 5.8 mph - N/A   Overcast
2:10 PM 66.2 °F 60.8 °F 83% 30.01 in 9.0 mi East 6.9 mph - 0.00 in Rain Light Rain
2:53 PM 66.9 °F 60.1 °F 79% 29.88 in 10.0 mi East 10.4 mph - 0.00 in   Overcast
3:05 PM 66.2 °F 60.8 °F 83% 30.00 in 10.0 mi East 10.4 mph - N/A   Overcast
3:20 PM 66.2 °F 60.8 °F 83% 30.00 in 10.0 mi East 10.4 mph - N/A   Overcast
3:53 PM 64.9 °F 61.0 °F 87% 29.88 in 10.0 mi ESE 6.9 mph - 0.00 in Rain Light Rain
4:21 PM 64.4 °F 60.8 °F 88% 30.00 in 9.0 mi East 4.6 mph - 0.01 in Rain Light Rain
4:53 PM 64.9 °F 61.0 °F 87% 29.86 in 10.0 mi ESE 8.1 mph - 0.01 in Rain Light Rain
5:32 PM 64.4 °F 62.6 °F 94% 29.98 in 10.0 mi SE 8.1 mph - 0.00 in Rain Light Rain
5:42 PM 64.4 °F 62.6 °F 94% 29.98 in 10.0 mi ESE 8.1 mph - 0.00 in Rain Light Rain
5:49 PM 64.4 °F 62.6 °F 94% 29.98 in 10.0 mi SE 8.1 mph - 0.00 in Rain Light Rain
5:53 PM 64.0 °F 62.1 °F 93% 29.86 in 10.0 mi SE 9.2 mph - 0.00 in Rain Light Rain
6:00 PM 64.4 °F 62.6 °F 94% 29.98 in 10.0 mi ESE 10.4 mph - 0.00 in   Overcast
6:10 PM 64.4 °F 62.6 °F 94% 29.97 in 10.0 mi ESE 4.6 mph - 0.00 in   Scattered Clouds
6:53 PM 64.0 °F 60.1 °F 87% 29.85 in 10.0 mi East 10.4 mph - 0.00 in   Clear
7:53 PM 64.0 °F 59.0 °F 84% 29.85 in 10.0 mi SE 9.2 mph - N/A   Scattered Clouds
8:53 PM 63.0 °F 60.1 °F 90% 29.88 in 10.0 mi SE 6.9 mph - 0.00 in Rain Light Rain
9:53 PM 63.0 °F 60.1 °F 90% 29.91 in 10.0 mi SSE 5.8 mph - 0.01 in Rain Light Rain
10:53 PM 63.0 °F 61.0 °F 93% 29.91 in 10.0 mi ESE 5.8 mph - 0.01 in Rain Light Rain
11:53 PM 61.0 °F 59.0 °F 93% 29.91 in 10.0 mi ENE 5.8 mph - 0.02 in Rain Light Rain